FW6054 Weather Reports


Display with metric or nautical units.
time (UTC)temp
F
wind
direction
speed
MPH
gust
MPH
rain 1hr
in
rain 24hr
in
rain mn
in
humidity
%
barometer
mb
20260504044552 47 0 0.0 0.0 0.00 0.00 0.00 63 1010.6
20260504043051 46 0 0.0 2.0 0.00 0.00 0.00 64 1010.8
20260504041552 46 0 0.0 1.0 0.00 0.00 0.00 65 1010.9
20260504040057 46 0 0.0 0.0 0.00 0.00 0.00 66 1010.8
20260504034552 46 0 0.0 0.0 0.00 0.00 0.00 65 1010.7
20260504033057 46 0 0.0 0.0 0.00 0.00 0.00 64 1010.5
20260504031602 45 0 0.0 0.0 0.00 0.00 0.00 63 1010.6
20260504030053 45 0 0.0 1.0 0.00 0.00 0.00 62 1010.4
20260504024600 45 0 0.0 0.0 0.00 0.00 0.00 61 1010.3
20260504023051 46 0 0.0 0.0 0.00 0.00 0.00 59 1010.4
20260504021555 47 0 0.0 0.0 0.00 0.00 0.00 57 1010.6
20260504020054 48 0 0.0 0.0 0.00 0.00 0.00 55 1010.5
20260504014555 49 0 0.0 0.0 0.00 0.00 0.00 53 1010.6
20260504013104 49 0 0.0 0.0 0.00 0.00 0.00 50 1010.5
20260504011550 50 0 0.0 0.0 0.00 0.00 0.00 49 1010.4
20260504010055 51 0 0.0 3.0 0.00 0.00 0.00 47 1010.2
20260504004602 52 0 0.0 1.0 0.00 0.00 0.00 45 1010.1
20260504003057 52 27 0.0 3.0 0.00 0.00 0.00 44 1010.1
20260504001558 53 0 0.0 4.0 0.00 0.00 0.00 42 1009.9
20260504000056 53 5 2.0 5.0 0.00 0.00 0.00 41 1009.8
20260503234555 54 30 1.0 7.0 0.00 0.00 0.00 40 1009.7
20260503233054 54 360 2.0 9.0 0.00 0.00 0.00 38 1009.3
20260503231557 54 290 2.0 11.0 0.00 0.00 0.00 37 1009.0
20260503230053 55 270 1.0 7.0 0.00 0.00 0.00 36 1008.9
20260503224551 56 268 3.0 12.0 0.00 0.00 0.00 33 1008.5
20260503223058 56 316 2.0 12.0 0.00 0.00 0.00 32 1008.5
20260503221553 56 355 2.0 11.0 0.00 0.00 0.00 32 1008.4
20260503220100 56 279 2.0 11.0 0.00 0.00 0.00 31 1008.5
20260503214551 56 5 5.0 15.0 0.00 0.00 0.00 29 1008.5
20260503213055 56 360 3.0 15.0 0.00 0.00 0.00 31 1008.5
20260503211604 56 0 3.0 10.0 0.00 0.00 0.00 31 1008.5
20260503210055 56 312 3.0 13.0 0.00 0.00 0.00 31 1008.3
20260503204559 55 329 2.0 11.0 0.00 0.00 0.00 34 1008.5
20260503203055 55 0 2.0 10.0 0.00 0.00 0.00 36 1008.7
20260503201553 54 16 2.0 13.0 0.00 0.00 0.00 38 1008.8
20260503200056 54 347 5.0 14.0 0.00 0.00 0.00 37 1008.9
20260503194554 54 269 3.0 11.0 0.00 0.00 0.00 39 1009.1
20260503193059 55 272 2.0 11.0 0.00 0.00 0.00 38 1009.4
20260503191556 54 0 1.0 10.0 0.00 0.00 0.00 40 1009.6
20260503190055 54 275 3.0 8.0 0.00 0.00 0.00 41 1009.7
20260503184606 54 272 2.0 9.0 0.00 0.00 0.00 40 1009.8
20260503183054 52 335 4.0 12.0 0.00 0.00 0.00 43 1009.9
20260503181552 53 319 2.0 13.0 0.00 0.00 0.00 42 1010.0
20260503180055 51 13 3.0 8.0 0.00 0.00 0.00 44 1010.1
20260503174606 50 346 3.0 11.0 0.00 0.00 0.00 45 1010.2
20260503173057 50 355 3.0 13.0 0.00 0.00 0.00 45 1010.3
20260503171553 50 267 3.0 10.0 0.00 0.00 0.00 45 1010.3
20260503100110 40 20 1.0 4.0 0.00 0.00 0.00 74 1010.6
20260503081557 38 38 0.0 3.0 0.00 0.00 0.00 76 1010.8